OCN62G EDDF-LGMK

Flight info

Callsign OCN62G
Flight time N/A
Altitude 37000
Route CINDY8S/18 CINDY Z74 LAMPU DCT NOMBO Y161 MAH DCT VAVOR DCT RADIZ DCT GORPA DCT EVTON/N0440F390 DCT SOLGU DCT AKIKA DCT MAVAR DCT BITLA UN137 AGAPU
Aircraft A320/M-SDE3FGHIRWY/LB1

Departure

Time 2026-05-07 14:11
Airport Frankfurt Main Airport (EDDF)

Arrival

Time N/A
Airport Mykonos Island National Airport (LGMK)
Time Latitude Longitude Altitude Speed Heading
2026-05-07 13:58 50.03613 8.53795 335 ft 0 kts 160°
2026-05-07 14:08 50.03612 8.53795 341 ft 0 kts 160°
2026-05-07 14:08 50.03588 8.53809 338 ft 5 kts 160°
2026-05-07 14:08 50.03553 8.53827 338 ft 5 kts 169°
2026-05-07 14:09 50.03524 8.53758 339 ft 12 kts 250°
2026-05-07 14:09 50.03489 8.53608 335 ft 18 kts 249°
2026-05-07 14:09 50.03441 8.53409 335 ft 21 kts 249°
2026-05-07 14:09 50.03387 8.53187 334 ft 23 kts 249°
2026-05-07 14:10 50.03332 8.52951 331 ft 24 kts 249°
2026-05-07 14:10 50.03278 8.52728 334 ft 20 kts 248°
2026-05-07 14:10 50.03193 8.52596 334 ft 19 kts 184°
2026-05-07 14:10 50.02975 8.52596 335 ft 59 kts 180°
2026-05-07 14:11 50.02328 8.52603 335 ft 123 kts 179°
2026-05-07 14:11 50.01313 8.52618 495 ft 156 kts 181°
2026-05-07 14:11 50.00231 8.52639 1216 ft 156 kts 181°
2026-05-07 14:11 49.99108 8.52646 1782 ft 170 kts 180°
2026-05-07 14:12 49.97864 8.52685 2225 ft 188 kts 174°
2026-05-07 14:12 49.96589 8.53480 2564 ft 211 kts 141°
2026-05-07 14:12 49.95660 8.55331 2943 ft 227 kts 117°
2026-05-07 14:12 49.94888 8.57513 3615 ft 237 kts 118°
2026-05-07 14:13 49.94206 8.59847 4521 ft 239 kts 103°
2026-05-07 14:13 49.93982 8.62498 5060 ft 260 kts 92°
2026-05-07 14:13 49.93858 8.65395 5725 ft 273 kts 94°
2026-05-07 14:13 49.93415 8.68294 6603 ft 281 kts 112°
2026-05-07 14:14 49.92362 8.70866 7461 ft 286 kts 133°
2026-05-07 14:14 49.90820 8.72825 8340 ft 289 kts 145°
2026-05-07 14:14 49.89174 8.74649 9251 ft 293 kts 141°
2026-05-07 14:14 49.87816 8.77009 10118 ft 297 kts 122°
2026-05-07 14:15 49.86778 8.79876 10609 ft 316 kts 118°
2026-05-07 14:15 49.85689 8.82969 10948 ft 336 kts 118°
2026-05-07 14:15 49.84549 8.86177 11648 ft 343 kts 119°
2026-05-07 14:15 49.83403 8.89382 12432 ft 347 kts 119°
2026-05-07 14:16 49.82220 8.92669 13211 ft 351 kts 119°
2026-05-07 14:16 49.81015 8.95992 13969 ft 355 kts 119°
2026-05-07 14:16 49.79796 8.99339 14641 ft 359 kts 119°
2026-05-07 14:16 49.78560 9.02721 15316 ft 363 kts 119°
2026-05-07 14:17 49.77310 9.06139 16000 ft 367 kts 120°
2026-05-07 14:17 49.75790 9.09314 16608 ft 371 kts 136°
2026-05-07 14:17 49.73922 9.12088 17262 ft 374 kts 137°
2026-05-07 14:17 49.72021 9.14866 17928 ft 378 kts 138°
2026-05-07 14:18 49.70097 9.17665 18550 ft 381 kts 138°
2026-05-07 14:18 49.68154 9.20479 19126 ft 385 kts 138°
2026-05-07 14:18 49.66222 9.23276 19694 ft 387 kts 138°
2026-05-07 14:18 49.64252 9.26130 20287 ft 390 kts 138°
2026-05-07 14:19 49.62265 9.29011 20863 ft 393 kts 137°
2026-05-07 14:19 49.60265 9.31911 21423 ft 396 kts 137°
2026-05-07 14:19 49.58251 9.34831 21950 ft 399 kts 138°
2026-05-07 14:19 49.56221 9.37772 22471 ft 403 kts 138°
2026-05-07 14:20 49.54169 9.40738 23002 ft 406 kts 138°
2026-05-07 14:20 49.52104 9.43714 23525 ft 409 kts 138°
2026-05-07 14:20 49.50018 9.46718 23933 ft 413 kts 138°
2026-05-07 14:20 49.47913 9.49746 24341 ft 416 kts 138°
2026-05-07 14:21 49.45820 9.52750 24762 ft 418 kts 138°